Location: Clarks Summit,Pa.
(41.5000°N, 75.6000°W)
Time: 03:53:21
(UTC-04:00)

ISS - Visible Passes

Search period start: 14 April 2024 00:00
Search period end: 24 April 2024 00:00
Orbit: 413 x 419 km, 51.6° (Epoch: 13 April)

Date Brightness Start Highest point End Pass type
(mag) Time Alt. Az. Time Alt. Az. Time Alt. Az.
18 Apr -1.4 05:46:14 10° S 05:48:41 19° SE 05:51:10 10° E visible
19 Apr -0.9 04:59:12 10° SSE 05:00:13 11° SE 05:01:13 10° ESE visible
21 Apr -2.3 04:57:02 16° S 04:59:07 30° SE 05:02:06 10° ENE visible
22 Apr -1.6 04:10:18 17° SE 04:10:30 18° SE 04:12:49 10° E visible
23 Apr -3.8 04:56:20 25° SW 04:58:07 87° SE 05:01:27 10° NE visible
